This is the latest recevied weather packets stored in our database for station/object KG5EO. If no packets are shown the sender has not sent any weather packets the latest 10 day(s).
| Time | Temp. | Humidity | Pressure | Rain* | Wind** | Luminosity | Snow |
|---|---|---|---|---|---|---|---|
| 1777900573 | 20° C | 53% | 40.9 hPa | 0 mm | - | - | - |
| 1777900273 | 20° C | 53% | 40.9 hPa | 0 mm | - | - | - |
| 1777899973 | 20.56° C | 52% | 40.9 hPa | 0 mm | - | - | - |
| 1777899673 | 20° C | 52% | 40.9 hPa | 0 mm | - | - | - |
| 1777899373 | 20° C | 52% | 40.9 hPa | 0 mm | - | - | - |
| 1777899074 | 20° C | 55% | 40.9 hPa | 0 mm | - | - | - |
| 1777898773 | 20° C | 53% | 40.9 hPa | 0 mm | - | - | - |
| 1777898474 | 20° C | 53% | 40.9 hPa | 0 mm | - | - | - |
| 1777898172 | 20° C | 55% | 40.9 hPa | 0 mm | - | - | - |
| 1777897872 | 20° C | 53% | 40.9 hPa | 0 mm | - | - | - |
| 1777897573 | 20° C | 54% | 40.9 hPa | 0 mm | - | - | - |
| 1777897273 | 20° C | 54% | 40.9 hPa | 0 mm | - | - | - |
| 1777896972 | 20° C | 55% | 40.9 hPa | 0 mm | - | - | - |
| 1777896672 | 20.56° C | 54% | 40.9 hPa | 0 mm | - | - | - |
| 1777896371 | 20.56° C | 51% | 40.9 hPa | 0 mm | - | - | - |
| 1777896071 | 20.56° C | 51% | 40.9 hPa | 0 mm | - | - | - |
| 1777895773 | 20.56° C | 51% | 40.9 hPa | 0 mm | - | - | - |
| 1777895472 | 20.56° C | 50% | 40.9 hPa | 0 mm | - | - | - |
| 1777895171 | 21.11° C | 49% | 41 hPa | 0 mm | - | - | - |
| 1777894873 | 21.11° C | 49% | 41 hPa | 0 mm | - | - | - |
| 1777894571 | 21.67° C | 48% | 41 hPa | 0 mm | - | - | - |
| 1777894272 | 21.67° C | 47% | 41 hPa | 0 mm | - | - | - |
| 1777893974 | 21.67° C | 47% | 41 hPa | 0 mm | - | - | - |
| 1777893672 | 21.67° C | 46% | 41 hPa | 0 mm | - | - | - |
| 1777893370 | 22.22° C | 46% | 41 hPa | 0 mm | - | - | - |
* Rain latest hour (hover to see other rain measurements)
** Current wind speed in m/s (hover to see current wind gust speed)